Powrót do katalogu

JILIN-1 GAOFEN 03D 19 XING

AktywnyNaukaSSO
NORAD 57004·PAYLOAD·🇨🇳 China
Ta nazwa satelity nie została jeszcze potwierdzona przez oficjalne źródła.

Wystrzelony Jun 15, 2023 z Taiyuan Satellite Launch Center

Loading…

Następne Przeloty (najbliższe 24 godziny)

TLE

ŚwieżeSource: Space-Track

Epoka: Sep 14, 2026, 14:38 UTC

1 57004U 23085A   26257.61041605  .00010721  00000-0  34469-3 0  9999
2 57004  97.5023   8.6415 0007744  77.2290 282.9817 15.32412475180254

Śledź JILIN-1 GAOFEN 03D 19 XING w czasie rzeczywistym z AllMySat

Download on the App Store